STARLINK-11267 [DTC]

Last updated on Sun Oct 06 2024 00:02:04 GMT+0000 (Coordinated Universal Time)

1 60994U 24158E 24279.42443832 -.00001459 00000+0 -49259-5 0 9996 2 60994 53.1572 326.5296 0000787 65.5772 294.5331 15.76725096 5875
UTC large
Height (km)
Speed (km/s)
/
Latitude / Longitude
Inclination (degrees)
Orbital Period (minutes)
Azimuth
Elevation
Range (km)
Doppler Factor

Next 0 passes for location: London (51.5072 / 0.1276)

Sorry there are no passes over London.